• In Hungary
  • List of Countries
  • For 7 days
  • Water Temperature
  • Satellite Maps
  • Weather Map
  • News
  • Weather Widgets
  • user-avatar
    Login

    Hourly Weather Volodeevo

    Today, 22 September, Saturday

    Time Temperature Precipitation Wind Pressure Humidity
    00:00 +16°C° 0 mm 2 mps 750 mmHg 91%
    01:00 +16°C° 0 mm 2 mps 749 mmHg 93%
    02:00 +16°C° 0 mm 2 mps 749 mmHg 95%
    03:00 +16°C° 0 mm 2 mps 749 mmHg 95%
    04:00 +16°C° 0 mm 3 mps 749 mmHg 95%
    05:00 +16°C° 0 mm 3 mps 749 mmHg 95%
    06:00 +17°C° 0 mm 3 mps 748 mmHg 90%
    07:00 +18°C° 0 mm 4 mps 748 mmHg 84%
    08:00 +20°C° 0 mm 4 mps 748 mmHg 78%
    09:00 +21°C° 0 mm 5 mps 747 mmHg 70%
    10:00 +22°C° 0 mm 5 mps 747 mmHg 63%
    11:00 +24°C° 0 mm 6 mps 747 mmHg 56%
    12:00 +24°C° 0 mm 6 mps 746 mmHg 54%
    13:00 +26°C° 0 mm 6 mps 745 mmHg 52%
    14:00 +26°C° 0 mm 6 mps 745 mmHg 51%
    15:00 +25°C° 0 mm 5 mps 744 mmHg 55%
    16:00 +23°C° 0 mm 5 mps 744 mmHg 60%
    17:00 +21°C° 0 mm 4 mps 743 mmHg 64%
    18:00 +20°C° 0.2 mm 4 mps 743 mmHg 68%
    19:00 +19°C° 0.2 mm 4 mps 743 mmHg 72%
    20:00 +18°C° 0.2 mm 4 mps 743 mmHg 76%
    21:00 +17°C° 0.1 mm 4 mps 743 mmHg 80%
    22:00 +16°C° 0.1 mm 3 mps 743 mmHg 85%
    23:00 +14°C° 0.1 mm 3 mps 743 mmHg 89%

    Tomorrow, 23 September, Sunday

    Time Temperature Precipitation Wind Pressure Humidity
    00:00 +13°C° 0.3 mm 3 mps 743 mmHg 89%
    01:00 +12°C° 0.3 mm 3 mps 743 mmHg 89%
    02:00 +11°C° 0.3 mm 3 mps 743 mmHg 90%
    03:00 +11°C° 1 mm 3 mps 743 mmHg 90%
    04:00 +10°C° 1 mm 3 mps 743 mmHg 91%
    05:00 +9°C° 1 mm 3 mps 742 mmHg 92%
    06:00 +10°C° 1.5 mm 3 mps 742 mmHg 92%
    07:00 +10°C° 1.5 mm 3 mps 742 mmHg 92%
    08:00 +10°C° 1.5 mm 3 mps 742 mmHg 93%
    09:00 +10°C° 0.3 mm 3 mps 742 mmHg 88%
    10:00 +11°C° 0.3 mm 3 mps 743 mmHg 84%
    11:00 +12°C° 0.3 mm 4 mps 743 mmHg 80%
    12:00 +13°C° 0.1 mm 4 mps 743 mmHg 75%
    13:00 +13°C° 0.1 mm 4 mps 743 mmHg 70%
    14:00 +14°C° 0.1 mm 4 mps 743 mmHg 66%
    15:00 +13°C° 0.1 mm 4 mps 743 mmHg 70%
    16:00 +12°C° 0.1 mm 3 mps 743 mmHg 73%
    17:00 +12°C° 0.1 mm 3 mps 743 mmHg 77%
    18:00 +11°C° 0.2 mm 3 mps 743 mmHg 81%
    19:00 +10°C° 0.2 mm 3 mps 743 mmHg 85%
    20:00 +9°C° 0.2 mm 3 mps 743 mmHg 88%
    21:00 +9°C° 0 mm 3 mps 743 mmHg 89%
    22:00 +8°C° 0 mm 3 mps 743 mmHg 90%
    23:00 +8°C° 0 mm 3 mps 743 mmHg 91%

    Day after tomorrow, 24 September, Monday

    Time Temperature Precipitation Wind Pressure Humidity
    00:00 +8°C° 0 mm 3 mps 743 mmHg 92%
    01:00 +7°C° 0 mm 3 mps 743 mmHg 93%
    02:00 +7°C° 0 mm 3 mps 743 mmHg 93%
    03:00 +7°C° 0 mm 3 mps 743 mmHg 94%
    04:00 +7°C° 0 mm 3 mps 743 mmHg 95%
    05:00 +5°C° 0 mm 3 mps 743 mmHg 96%
    06:00 +7°C° 0 mm 3 mps 743 mmHg 92%
    07:00 +8°C° 0 mm 3 mps 743 mmHg 89%
    08:00 +9°C° 0 mm 3 mps 743 mmHg 85%
    09:00 +10°C° 0 mm 3 mps 743 mmHg 80%
    10:00 +11°C° 0 mm 3 mps 742 mmHg 75%
    11:00 +13°C° 0 mm 3 mps 742 mmHg 69%
    12:00 +12°C° 0.4 mm 3 mps 741 mmHg 73%
    13:00 +12°C° 0.4 mm 3 mps 741 mmHg 77%
    14:00 +11°C° 0.4 mm 3 mps 740 mmHg 80%
    15:00 +10°C° 1.5 mm 3 mps 740 mmHg 85%
    16:00 +10°C° 1.5 mm 3 mps 739 mmHg 89%
    17:00 +9°C° 1.5 mm 3 mps 738 mmHg 94%
    18:00 +8°C° 1.7 mm 4 mps 737 mmHg 94%
    19:00 +8°C° 1.7 mm 4 mps 736 mmHg 94%
    20:00 +8°C° 1.7 mm 5 mps 735 mmHg 93%
    21:00 +7°C° 2.4 mm 5 mps 734 mmHg 93%
    22:00 +7°C° 2.4 mm 5 mps 732 mmHg 94%
    23:00 +7°C° 2.4 mm 6 mps 731 mmHg 94%

    25 September, Tuesday

    Time Temperature Precipitation Wind Pressure Humidity
    00:00 +7°C° 3.2 mm 6 mps 730 mmHg 94%
    01:00 +7°C° 3.2 mm 6 mps 730 mmHg 94%
    02:00 +5°C° 3.2 mm 6 mps 729 mmHg 94%
    03:00 +5°C° 1.6 mm 7 mps 729 mmHg 93%
    04:00 +5°C° 1.6 mm 7 mps 729 mmHg 92%
    05:00 +5°C° 1.6 mm 7 mps 729 mmHg 91%
    06:00 +5°C° 1.2 mm 8 mps 730 mmHg 90%
    07:00 +5°C° 1.2 mm 8 mps 731 mmHg 89%
    08:00 +5°C° 1.2 mm 8 mps 732 mmHg 89%
    09:00 +5°C° 1.2 mm 8 mps 733 mmHg 88%
    10:00 +5°C° 1.2 mm 8 mps 734 mmHg 87%
    11:00 +5°C° 1.2 mm 9 mps 735 mmHg 87%
    12:00 +5°C° 0.7 mm 8 mps 736 mmHg 85%
    13:00 +5°C° 0.7 mm 8 mps 738 mmHg 83%
    14:00 +5°C° 0.7 mm 8 mps 739 mmHg 81%
    15:00 +5°C° 0.1 mm 8 mps 740 mmHg 80%
    16:00 +5°C° 0.1 mm 7 mps 741 mmHg 78%
    17:00 +5°C° 0.1 mm 6 mps 742 mmHg 77%
    18:00 +5°C° 0 mm 6 mps 743 mmHg 77%
    19:00 +4°C° 0 mm 6 mps 744 mmHg 77%
    20:00 +4°C° 0 mm 6 mps 745 mmHg 77%
    21:00 +3°C° 0 mm 5 mps 746 mmHg 77%
    22:00 +3°C° 0 mm 5 mps 747 mmHg 76%
    23:00 +2°C° 0 mm 5 mps 748 mmHg 76%

    26 September, Wednesday

    Time Temperature Precipitation Wind Pressure Humidity
    00:00 +3°C° 0 mm 4 mps 748 mmHg 75%
    01:00 +1°C° 0 mm 4 mps 749 mmHg 75%
    02:00 +1°C° 0 mm 4 mps 749 mmHg 75%
    03:00 +1°C° 0 mm 4 mps 749 mmHg 78%
    04:00 +1°C° 0 mm 4 mps 749 mmHg 81%
    05:00 0°C° 0 mm 4 mps 749 mmHg 84%
    06:00 +3°C° 0 mm 4 mps 749 mmHg 82%
    07:00 +3°C° 0 mm 5 mps 749 mmHg 81%
    08:00 +5°C° 0 mm 5 mps 749 mmHg 80%
    09:00 +5°C° 0.1 mm 5 mps 749 mmHg 79%
    10:00 +6°C° 0.1 mm 5 mps 749 mmHg 78%
    11:00 +7°C° 0.1 mm 5 mps 749 mmHg 77%
    12:00 +7°C° 0.3 mm 5 mps 748 mmHg 79%
    13:00 +7°C° 0.3 mm 5 mps 748 mmHg 82%
    14:00 +7°C° 0.3 mm 5 mps 748 mmHg 84%
    15:00 +7°C° 0.3 mm 5 mps 747 mmHg 85%
    16:00 +7°C° 0.3 mm 5 mps 746 mmHg 87%
    17:00 +7°C° 0.3 mm 5 mps 746 mmHg 88%
    18:00 +7°C° 0.4 mm 5 mps 745 mmHg 89%
    19:00 +7°C° 0.4 mm 6 mps 744 mmHg 89%
    20:00 +7°C° 0.4 mm 6 mps 744 mmHg 90%
    21:00 +6°C° 0.7 mm 7 mps 743 mmHg 89%
    22:00 +6°C° 0.7 mm 7 mps 742 mmHg 89%
    23:00 +6°C° 0.7 mm 8 mps 741 mmHg 88%

    27 September, Thursday

    Time Temperature Precipitation Wind Pressure Humidity
    00:00 +6°C° 0.5 mm 8 mps 741 mmHg 88%
    01:00 +6°C° 0.5 mm 8 mps 740 mmHg 87%
    02:00 +6°C° 0.5 mm 8 mps 739 mmHg 87%
    03:00 +6°C° 0.2 mm 8 mps 739 mmHg 87%
    04:00 +6°C° 0.2 mm 8 mps 738 mmHg 87%
    05:00 +6°C° 0.2 mm 8 mps 737 mmHg 87%
    06:00 +7°C° 0.2 mm 8 mps 737 mmHg 87%
    07:00 +7°C° 0.2 mm 8 mps 736 mmHg 87%
    08:00 +9°C° 0.2 mm 8 mps 736 mmHg 87%
    09:00 +9°C° 0.9 mm 7 mps 736 mmHg 86%
    10:00 +9°C° 0.9 mm 7 mps 736 mmHg 86%
    11:00 +10°C° 0.9 mm 6 mps 735 mmHg 86%
    12:00 +10°C° 0.8 mm 7 mps 735 mmHg 84%
    13:00 +10°C° 0.8 mm 7 mps 735 mmHg 81%
    14:00 +10°C° 0.8 mm 7 mps 735 mmHg 79%
    15:00 +10°C° 0.4 mm 6 mps 735 mmHg 80%
    16:00 +9°C° 0.4 mm 5 mps 735 mmHg 80%
    17:00 +8°C° 0.4 mm 4 mps 735 mmHg 81%
    18:00 +8°C° 0.1 mm 4 mps 735 mmHg 81%
    19:00 +7°C° 0.1 mm 4 mps 736 mmHg 82%
    20:00 +7°C° 0.1 mm 4 mps 736 mmHg 82%
    21:00 +6°C° 0 mm 4 mps 736 mmHg 82%
    22:00 +6°C° 0 mm 4 mps 736 mmHg 82%
    23:00 +5°C° 0 mm 5 mps 736 mmHg 82%
    Show more